TimeCDT,TemperatureF,Dew PointF,Humidity,Sea Level PressureIn,VisibilityMPH,Wind Direction,Wind SpeedMPH,Gust SpeedMPH,PrecipitationIn,Events,Conditions,WindDirDegrees,DateUTC
12:13 AM,60.8,57.2,88,29.93,10.0,NNE,5.8,-,N/A,,Clear,20,2013-07-23 05:13:00
12:34 AM,60.8,57.2,88,29.94,10.0,North,5.8,-,N/A,,Clear,10,2013-07-23 05:34:00
12:54 AM,60.8,57.2,88,29.94,10.0,North,5.8,-,N/A,,Clear,360,2013-07-23 05:54:00
1:13 AM,60.8,57.2,88,29.93,10.0,NNE,6.9,-,N/A,,Clear,20,2013-07-23 06:13:00
1:34 AM,60.8,57.2,88,29.94,10.0,NNE,6.9,-,N/A,,Clear,30,2013-07-23 06:34:00
1:52 AM,60.8,57.2,88,29.95,10.0,NNE,5.8,-,N/A,,Clear,20,2013-07-23 06:52:00
2:14 AM,60.8,55.4,82,29.95,10.0,North,6.9,-,N/A,,Clear,10,2013-07-23 07:14:00
2:34 AM,59.0,57.2,94,29.95,10.0,NNE,8.1,-,N/A,,Clear,20,2013-07-23 07:34:00
2:54 AM,59.0,57.2,94,29.96,10.0,North,6.9,-,N/A,,Clear,10,2013-07-23 07:54:00
3:14 AM,59.0,57.2,94,29.95,10.0,North,8.1,-,N/A,,Clear,10,2013-07-23 08:14:00
3:34 AM,57.2,57.2,100,29.95,10.0,North,5.8,-,N/A,,Clear,10,2013-07-23 08:34:00
3:54 AM,57.2,57.2,100,29.96,10.0,North,4.6,-,N/A,,Clear,10,2013-07-23 08:54:00
4:14 AM,57.2,55.4,94,29.96,10.0,North,4.6,-,N/A,,Clear,10,2013-07-23 09:14:00
4:34 AM,57.2,55.4,94,29.97,10.0,NNW,3.5,-,N/A,,Clear,330,2013-07-23 09:34:00
4:54 AM,57.2,55.4,94,29.97,10.0,North,3.5,-,N/A,,Clear,350,2013-07-23 09:54:00
5:12 AM,55.4,55.4,100,29.97,10.0,NNW,3.5,-,N/A,,Clear,330,2013-07-23 10:12:00
5:34 AM,55.4,55.4,100,29.98,10.0,NW,4.6,-,N/A,,Clear,320,2013-07-23 10:34:00
5:54 AM,55.4,55.4,100,29.98,10.0,NNW,5.8,-,N/A,,Clear,330,2013-07-23 10:54:00
6:14 AM,55.4,55.4,100,30.01,10.0,NW,6.9,-,N/A,,Clear,320,2013-07-23 11:14:00
6:34 AM,57.2,55.4,94,30.02,10.0,NNW,5.8,-,N/A,,Clear,340,2013-07-23 11:34:00
6:54 AM,57.2,55.4,94,30.01,10.0,North,6.9,-,N/A,,Clear,10,2013-07-23 11:54:00
7:14 AM,57.2,57.2,100,30.01,10.0,North,6.9,-,N/A,,Clear,360,2013-07-23 12:14:00
7:34 AM,59.0,57.2,94,30.01,10.0,North,5.8,-,N/A,,Clear,360,2013-07-23 12:34:00
7:54 AM,59.0,57.2,94,30.00,10.0,NNE,4.6,-,N/A,,Clear,30,2013-07-23 12:54:00
8:14 AM,60.8,57.2,88,30.01,10.0,NNE,4.6,-,N/A,,Clear,20,2013-07-23 13:14:00
8:34 AM,62.6,59.0,88,30.02,10.0,North,4.6,-,N/A,,Clear,10,2013-07-23 13:34:00
8:54 AM,62.6,57.2,82,30.01,10.0,NNE,3.5,-,N/A,,Clear,30,2013-07-23 13:54:00
9:13 AM,62.6,57.2,82,30.01,10.0,ENE,5.8,-,N/A,,Clear,70,2013-07-23 14:13:00
9:34 AM,62.6,57.2,82,30.03,10.0,ENE,4.6,-,N/A,,Clear,60,2013-07-23 14:34:00
9:54 AM,64.4,57.2,77,30.04,10.0,Calm,Calm,-,N/A,,Clear,0,2013-07-23 14:54:00
10:14 AM,66.2,59.0,78,30.03,10.0,ENE,4.6,-,N/A,,Scattered Clouds,70,2013-07-23 15:14:00
10:34 AM,66.2,59.0,78,30.04,10.0,NE,4.6,-,N/A,,Scattered Clouds,40,2013-07-23 15:34:00
10:54 AM,68.0,59.0,73,30.04,10.0,NNE,4.6,-,N/A,,Scattered Clouds,30,2013-07-23 15:54:00
11:14 AM,68.0,57.2,68,30.04,10.0,ENE,4.6,-,N/A,,Scattered Clouds,70,2013-07-23 16:14:00
11:34 AM,68.0,53.6,60,30.04,10.0,NE,3.5,-,N/A,,Clear,50,2013-07-23 16:34:00
11:54 AM,71.6,57.2,60,30.04,10.0,NE,3.5,-,N/A,,Scattered Clouds,40,2013-07-23 16:54:00
12:14 PM,71.6,57.2,60,30.04,10.0,NNE,4.6,-,N/A,,Scattered Clouds,30,2013-07-23 17:14:00
12:33 PM,71.6,55.4,57,30.03,10.0,East,5.8,-,N/A,,Scattered Clouds,90,2013-07-23 17:33:00
12:54 PM,71.6,57.2,60,30.03,10.0,Calm,Calm,-,N/A,,Scattered Clouds,0,2013-07-23 17:54:00
1:14 PM,71.6,53.6,53,30.03,10.0,East,3.5,-,N/A,,Scattered Clouds,80,2013-07-23 18:14:00
1:33 PM,71.6,57.2,60,30.03,10.0,NNW,5.8,-,N/A,,Scattered Clouds,340,2013-07-23 18:33:00
1:54 PM,73.4,57.2,57,30.03,10.0,NNE,4.6,-,N/A,,Scattered Clouds,30,2013-07-23 18:54:00
2:14 PM,71.6,55.4,57,30.03,10.0,East,3.5,-,N/A,,Scattered Clouds,90,2013-07-23 19:14:00
2:33 PM,71.6,55.4,57,30.03,10.0,East,3.5,-,N/A,,Scattered Clouds,90,2013-07-23 19:33:00
2:54 PM,73.4,55.4,53,30.03,10.0,Calm,Calm,-,N/A,,Scattered Clouds,0,2013-07-23 19:54:00
3:14 PM,73.4,55.4,53,30.02,10.0,NNW,5.8,-,N/A,,Scattered Clouds,340,2013-07-23 20:14:00
3:34 PM,73.4,55.4,53,30.02,10.0,Calm,Calm,-,N/A,,Scattered Clouds,0,2013-07-23 20:34:00
3:54 PM,73.4,55.4,53,30.02,10.0,NE,8.1,-,N/A,,Scattered Clouds,40,2013-07-23 20:54:00
4:14 PM,73.4,55.4,53,30.02,10.0,Calm,Calm,-,N/A,,Mostly Cloudy,0,2013-07-23 21:14:00
4:34 PM,73.4,57.2,57,30.02,10.0,NE,6.9,-,N/A,,Mostly Cloudy,40,2013-07-23 21:34:00
4:54 PM,73.4,55.4,53,30.02,10.0,North,3.5,-,N/A,,Clear,10,2013-07-23 21:54:00
5:14 PM,75.2,55.4,50,30.02,10.0,NNW,8.1,-,N/A,,Scattered Clouds,340,2013-07-23 22:14:00
5:34 PM,75.2,57.2,53,30.02,10.0,NNW,5.8,-,N/A,,Overcast,340,2013-07-23 22:34:00
5:54 PM,75.2,55.4,50,30.02,10.0,NNE,8.1,-,N/A,,Scattered Clouds,20,2013-07-23 22:54:00
6:14 PM,75.2,55.4,50,30.01,10.0,NNE,9.2,-,N/A,,Clear,30,2013-07-23 23:14:00
6:34 PM,73.4,57.2,57,30.01,10.0,North,5.8,-,N/A,,Clear,10,2013-07-23 23:34:00
6:54 PM,73.4,55.4,53,30.01,10.0,NNE,6.9,-,N/A,,Clear,20,2013-07-23 23:54:00
7:14 PM,73.4,55.4,53,30.01,10.0,NNE,5.8,-,N/A,,Clear,30,2013-07-24 00:14:00
7:34 PM,71.6,57.2,60,30.01,10.0,NNE,4.6,-,N/A,,Clear,30,2013-07-24 00:34:00
7:54 PM,71.6,57.2,60,30.01,10.0,NE,4.6,-,N/A,,Clear,40,2013-07-24 00:54:00
8:14 PM,71.6,57.2,60,30.02,10.0,NNE,4.6,-,N/A,,Clear,30,2013-07-24 01:14:00
8:34 PM,69.8,57.2,64,30.02,10.0,NNE,4.6,-,N/A,,Clear,20,2013-07-24 01:34:00
8:54 PM,68.0,59.0,73,30.02,10.0,North,3.5,-,N/A,,Clear,10,2013-07-24 01:54:00
9:14 PM,66.2,59.0,78,30.03,10.0,North,3.5,-,N/A,,Clear,360,2013-07-24 02:14:00
9:34 PM,66.2,59.0,78,30.04,10.0,North,3.5,-,N/A,,Clear,350,2013-07-24 02:34:00
9:54 PM,64.4,59.0,83,30.04,10.0,North,3.5,-,N/A,,Clear,350,2013-07-24 02:54:00
10:14 PM,64.4,59.0,83,30.04,10.0,North,3.5,-,N/A,,Clear,350,2013-07-24 03:14:00
10:34 PM,64.4,59.0,83,30.04,10.0,North,3.5,-,N/A,,Clear,360,2013-07-24 03:34:00
10:54 PM,64.4,57.2,77,30.04,10.0,North,3.5,-,N/A,,Clear,360,2013-07-24 03:54:00
11:14 PM,62.6,57.2,82,30.04,10.0,North,3.5,-,N/A,,Scattered Clouds,350,2013-07-24 04:14:00
11:34 PM,62.6,57.2,82,30.04,10.0,Calm,Calm,-,N/A,,Scattered Clouds,0,2013-07-24 04:34:00
11:54 PM,62.6,57.2,82,30.04,10.0,Calm,Calm,-,N/A,,Scattered Clouds,0,2013-07-24 04:54:00